Regional Weather Roundup
Issued by NWS

Home | Current Version | Previous Version | Graphics & Text | Print | Product List | Glossary On
Versions: 1 2 3 4 5 6 7 8 9 10 11 12 13 14 15 16 17 18 19 20 21 22 23 24 25 26 27 28 29 30 31 32 33 34 35 36 37 38 39 40 41 42 43 44 45 46 47 48 49 50
786
ASUS43 KFSD 272102
RWRSD

WEATHER ROUNDUP FOR SOUTH DAKOTA
NATIONAL WEATHER SERVICE SIOUX FALLS SD
400 PM CDT TUE JUN 27 2017

NOTE: "FAIR" INDICATES FEW OR NO CLOUDS BELOW 12,000 FEET WITH NO
SIGNIFICANT WEATHER AND/OR OBSTRUCTIONS TO VISIBILITY.


SDZ001>005-009-010-012>017-272200-
NORTHWEST AND NORTH CENTRAL SOUTH DAKOTA

CITY           SKY/WX    TMP DP  RH WIND       PRES   REMARKS
BUFFALO          N/A     93  44  18 NW25G38   29.55S
FAITH            N/A     91  57  31 S13G21    29.59F
MOBRIDGE       MOSUNNY   91  56  30 S22G36    29.57F
$$

SDZ012>016-024>037-041>051-057-063-072>074-272200-
SOUTHWEST AND SOUTH CENTRAL SOUTH DAKOTA

CITY           SKY/WX    TMP DP  RH WIND       PRES   REMARKS
RAPID CTY ARPT MOSUNNY   91  45  20 N9G23     29.64F
PIERRE         MOSUNNY   89  59  36 S25G39    29.58F
CUSTER         MOSUNNY   85  41  21 W12G18    29.81F
ELLSWORTH AFB  CLOUDY    92  46  20 N18       29.64F
PHILIP         MOSUNNY   95  57  27 SW16      29.58F
PINE RIDGE     CLOUDY    92  58  31 S12       29.65F
SPEARFISH      LGT RAIN  88  48  25 NW17G25   29.71F
WINNER         FAIR      90  60  36 S31G38    29.66F
$$

SDZ004>011-016>023-039-040-272200-
NORTHEAST SOUTH DAKOTA

CITY           SKY/WX    TMP DP  RH WIND       PRES   REMARKS
ABERDEEN       SUNNY     82  48  30 S25G35    29.68F
WATERTOWN      MOSUNNY   75  50  41 S25G32    29.77F
BROOKINGS      SUNNY     76  49  38 S20G28    29.80F
SISSETON         N/A     79  50  36 S18G25    29.74F
$$

SDZ017-020-022-023-036>040-048>070-272200-
SOUTHEAST SOUTH DAKOTA

CITY           SKY/WX    TMP DP  RH WIND       PRES   REMARKS
SIOUX FALLS    MOSUNNY   78  56  46 S23G30    29.81F
HURON          MOSUNNY   80  50  34 S25G40    29.70F
CHAMBERLAIN    SUNNY     88  62  41 SE28      29.66F
MITCHELL       MOSUNNY   81  54  39 S25G35    29.73F
YANKTON        SUNNY     82  58  43 SE26G32   29.77F
$$

ABBREVIATIONS USED IN REMARKS
   TC - TEMPERATURE IN CELSIUS
  WCI - WIND CHILL INDEX
   HX - HEAT INDEX
  VSB - VISIBILITY





USA.gov is the U.S. government's official web portal to all federal, state and local government web resources and services.